Location: Champs
(48.8539°N, 2.6040°E)
Time: 21:59:43
(UTC+00:00)

SPOT 1 Rocket Y - Pass Details

Date: 18 August 2022
Orbit: 784 x 832 km, 98.5° (Epoch: 06 October)

Event Time Altitude Azimuth Distance (km) Brightness Sun altitude
Exits shadow 20:00:11 - 157° (SSE) 2,638 7.8 -9.7°
Reaches altitude 10° 20:00:52 10° 156° (SSE) 2,364 7.5 -9.8°
Maximum altitude 20:06:05 74° 72° (ENE) 842 5.6 -10.5°
Drops below altitude 10° 20:11:24 10° 349° (N) 2,412 8.8 -11.3°
Sets 20:13:46 0° 348° (NNW) 3,355 9.6 -11.6°
